{"data":{"norad_id":67337,"intl_designator":"2026-003D","name":"STARLINK-36410","alt_names":[],"object_type":"PAYLOAD","status":"ACTIVE","operator":null,"country":"US","launch_date":"2026-01-09","launch_site_code":"AFETR","launch_vehicle":null,"mission":null,"orbit_class":"UNKNOWN","rcs_meters":null,"size_class":null,"mass_kg":null,"dimensions":null,"purposes":["comms"],"wikipedia_slug":null,"has_3d_model":false,"image_url":null,"decayed_at":null,"tle_current":{"epoch":"2026-05-24T18:16:48.804672Z","epoch_age_seconds":109786,"freshness":"FRESH","line1":"1 67337U 26003D   26144.76167598  .00014806  00000+0  54632-3 0  9994","line2":"2 67337  43.0020 157.8486 0004060 265.9666  94.0722 15.27584658 20452","mean_motion":15.27584658,"eccentricity":0.000406,"inclination_deg":43.002,"raan_deg":157.8486,"arg_perigee_deg":265.9666,"mean_anomaly_deg":94.0722,"bstar":0.00054632,"rev_number":2045,"period_min":94.266461269998,"perigee_km":480.24951245516,"apogee_km":485.82078423962,"semimajor_km":6861.1721483474,"source":"CELESTRAK","updated_at":"2026-05-25T13:38:21.522172Z"}}}